When you browse on this site, cookies collect data to enhance your experience and personalize the content and advertising you see.
Visit our Privacy Policy to learn more. By continuing to use the site, you agree to this use of cookies and data.
  • In United Kingdom
  • List of Countries
  • For 7 days
  • Water Temperature
  • Weather Map
  • Weather Widgets
  • user-avatar
    Login

    Hourly Weather Peshawar

    Today, 20 September, Friday

    Time Temperature Precipitation Wind Pressure Humidity
    00:00 +30°C° 0 mm 4 mps 751 mmHg 62%
    01:00 +30°C° 0 mm 4 mps 750 mmHg 67%
    02:00 +29°C° 0 mm 4 mps 750 mmHg 67%
    03:00 +29°C° 0 mm 4 mps 750 mmHg 67%
    04:00 +29°C° 0 mm 4 mps 750 mmHg 66%
    05:00 +30°C° 0 mm 4 mps 750 mmHg 63%
    06:00 +30°C° 0 mm 4 mps 751 mmHg 59%
    07:00 +32°C° 0 mm 4 mps 751 mmHg 56%
    08:00 +34°C° 0 mm 4 mps 751 mmHg 46%
    09:00 +37°C° 0 mm 4 mps 751 mmHg 37%
    10:00 +40°C° 0 mm 4 mps 751 mmHg 28%
    11:00 +41°C° 0 mm 4 mps 750 mmHg 26%
    12:00 +42°C° 0 mm 4 mps 750 mmHg 24%
    13:00 +42°C° 0 mm 4 mps 749 mmHg 22%
    14:00 +41°C° 0 mm 5 mps 749 mmHg 26%
    15:00 +40°C° 0 mm 6 mps 748 mmHg 30%
    16:00 +40°C° 0 mm 7 mps 748 mmHg 34%
    17:00 +38°C° 0 mm 6 mps 748 mmHg 38%
    18:00 +36°C° 0 mm 6 mps 749 mmHg 42%
    19:00 +35°C° 0 mm 6 mps 749 mmHg 46%
    20:00 +34°C° 0 mm 5 mps 749 mmHg 49%
    21:00 +34°C° 0 mm 4 mps 749 mmHg 51%
    22:00 +33°C° 0 mm 3 mps 750 mmHg 54%
    23:00 +33°C° 0 mm 4 mps 749 mmHg 56%

    Tomorrow, 21 September, Saturday

    Time Temperature Precipitation Wind Pressure Humidity
    00:00 +32°C° 0 mm 4 mps 749 mmHg 58%
    01:00 +32°C° 0 mm 4 mps 749 mmHg 59%
    02:00 +32°C° 0 mm 4 mps 748 mmHg 61%
    03:00 +30°C° 0 mm 4 mps 748 mmHg 63%
    04:00 +30°C° 0 mm 3 mps 748 mmHg 64%
    05:00 +31°C° 0 mm 3 mps 749 mmHg 60%
    06:00 +31°C° 0 mm 3 mps 749 mmHg 56%
    07:00 +33°C° 0 mm 3 mps 749 mmHg 53%
    08:00 +35°C° 0 mm 3 mps 750 mmHg 44%
    09:00 +38°C° 0 mm 3 mps 750 mmHg 34%
    10:00 +40°C° 0 mm 2 mps 750 mmHg 25%
    11:00 +42°C° 0 mm 3 mps 749 mmHg 24%
    12:00 +42°C° 0 mm 3 mps 748 mmHg 23%
    13:00 +43°C° 0 mm 3 mps 748 mmHg 22%
    14:00 +42°C° 0 mm 4 mps 747 mmHg 26%
    15:00 +41°C° 0 mm 5 mps 747 mmHg 30%
    16:00 +40°C° 0 mm 6 mps 747 mmHg 34%
    17:00 +37°C° 0 mm 5 mps 747 mmHg 38%
    18:00 +36°C° 0 mm 4 mps 748 mmHg 43%
    19:00 +35°C° 0 mm 4 mps 748 mmHg 47%
    20:00 +34°C° 0 mm 4 mps 748 mmHg 50%
    21:00 +34°C° 0 mm 4 mps 749 mmHg 52%
    22:00 +34°C° 0 mm 4 mps 749 mmHg 54%
    23:00 +33°C° 0 mm 4 mps 749 mmHg 57%

    Day after tomorrow, 22 September, Sunday

    Time Temperature Precipitation Wind Pressure Humidity
    00:00 +33°C° 0 mm 4 mps 749 mmHg 61%
    01:00 +32°C° 0 mm 5 mps 749 mmHg 64%
    02:00 +32°C° 0 mm 4 mps 749 mmHg 66%
    03:00 +31°C° 0 mm 3 mps 748 mmHg 68%
    04:00 +30°C° 0 mm 2 mps 748 mmHg 70%
    05:00 +31°C° 0 mm 2 mps 749 mmHg 69%
    06:00 +31°C° 0 mm 2 mps 750 mmHg 67%
    07:00 +31°C° 0 mm 2 mps 750 mmHg 66%
    08:00 +34°C° 0 mm 2 mps 750 mmHg 58%
    09:00 +36°C° 0 mm 2 mps 750 mmHg 50%
    10:00 +37°C° 0 mm 2 mps 750 mmHg 43%
    11:00 +38°C° 0 mm 2 mps 750 mmHg 40%
    12:00 +39°C° 0 mm 3 mps 749 mmHg 38%
    13:00 +40°C° 0 mm 3 mps 749 mmHg 36%
    14:00 +40°C° 0 mm 3 mps 749 mmHg 36%
    15:00 +41°C° 0 mm 4 mps 748 mmHg 37%
    16:00 +40°C° 0 mm 4 mps 748 mmHg 37%
    17:00 +38°C° 0 mm 4 mps 749 mmHg 42%
    18:00 +37°C° 0 mm 4 mps 749 mmHg 47%
    19:00 +35°C° 0 mm 3 mps 750 mmHg 51%
    20:00 +35°C° 0 mm 3 mps 750 mmHg 53%
    21:00 +34°C° 0 mm 4 mps 750 mmHg 54%
    22:00 +34°C° 0 mm 4 mps 751 mmHg 56%
    23:00 +34°C° 0 mm 3 mps 750 mmHg 57%

    23 September, Monday

    Time Temperature Precipitation Wind Pressure Humidity
    00:00 +33°C° 0 mm 3 mps 750 mmHg 59%
    01:00 +33°C° 0 mm 3 mps 750 mmHg 61%
    02:00 +32°C° 0 mm 2 mps 750 mmHg 60%
    03:00 +32°C° 0 mm 1 mps 750 mmHg 59%
    04:00 +32°C° 0 mm 1 mps 750 mmHg 58%
    05:00 +32°C° 0 mm 1 mps 751 mmHg 56%
    06:00 +33°C° 0 mm 1 mps 751 mmHg 54%
    07:00 +34°C° 0 mm 2 mps 752 mmHg 52%
    08:00 +36°C° 0 mm 2 mps 752 mmHg 46%
    09:00 +37°C° 0 mm 2 mps 752 mmHg 40%
    10:00 +39°C° 0 mm 2 mps 752 mmHg 35%
    11:00 +39°C° 0 mm 3 mps 751 mmHg 34%
    12:00 +41°C° 0 mm 4 mps 751 mmHg 34%
    13:00 +41°C° 0 mm 4 mps 750 mmHg 34%
    14:00 +41°C° 0 mm 5 mps 750 mmHg 36%
    15:00 +40°C° 0 mm 5 mps 750 mmHg 38%
    16:00 +40°C° 0 mm 6 mps 750 mmHg 40%
    17:00 +37°C° 0 mm 5 mps 750 mmHg 45%
    18:00 +36°C° 0 mm 5 mps 750 mmHg 50%
    19:00 +35°C° 0 mm 4 mps 750 mmHg 55%
    20:00 +34°C° 0 mm 4 mps 750 mmHg 57%
    21:00 +34°C° 0 mm 4 mps 751 mmHg 58%
    22:00 +34°C° 0 mm 3 mps 751 mmHg 60%
    23:00 +33°C° 0 mm 3 mps 751 mmHg 62%

    24 September, Tuesday

    Time Temperature Precipitation Wind Pressure Humidity
    00:00 +33°C° 0 mm 3 mps 751 mmHg 64%
    01:00 +33°C° 0 mm 4 mps 750 mmHg 66%
    02:00 +31°C° 0 mm 3 mps 750 mmHg 67%
    03:00 +31°C° 0 mm 3 mps 751 mmHg 69%
    04:00 +31°C° 0 mm 3 mps 751 mmHg 70%
    05:00 +31°C° 0 mm 3 mps 751 mmHg 68%
    06:00 +31°C° 0 mm 3 mps 751 mmHg 67%
    07:00 +33°C° 0 mm 3 mps 752 mmHg 65%
    08:00 +34°C° 0 mm 3 mps 752 mmHg 57%
    09:00 +36°C° 0 mm 3 mps 752 mmHg 49%
    10:00 +37°C° 0 mm 3 mps 752 mmHg 40%
    11:00 +38°C° 0 mm 4 mps 751 mmHg 39%
    12:00 +40°C° 0 mm 5 mps 751 mmHg 37%
    13:00 +40°C° 0 mm 5 mps 750 mmHg 35%
    14:00 +40°C° 0 mm 6 mps 750 mmHg 38%
    15:00 +39°C° 0 mm 6 mps 750 mmHg 41%
    16:00 +38°C° 0 mm 6 mps 749 mmHg 44%
    17:00 +36°C° 0 mm 6 mps 750 mmHg 49%
    18:00 +35°C° 0 mm 5 mps 750 mmHg 54%
    19:00 +34°C° 0 mm 5 mps 750 mmHg 59%
    20:00 +33°C° 0 mm 5 mps 751 mmHg 61%
    21:00 +33°C° 0 mm 4 mps 751 mmHg 63%
    22:00 +33°C° 0 mm 4 mps 751 mmHg 64%
    23:00 +33°C° 0 mm 4 mps 751 mmHg 66%

    25 September, Wednesday

    Time Temperature Precipitation Wind Pressure Humidity
    00:00 +32°C° 0 mm 4 mps 751 mmHg 68%
    01:00 +32°C° 0 mm 4 mps 751 mmHg 69%
    02:00 +32°C° 0 mm 4 mps 751 mmHg 70%
    03:00 +32°C° 0 mm 4 mps 751 mmHg 71%
    04:00 +30°C° 0 mm 3 mps 751 mmHg 71%
    05:00 +31°C° 0 mm 3 mps 751 mmHg 70%
    06:00 +31°C° 0 mm 3 mps 751 mmHg 68%
    07:00 +32°C° 0 mm 4 mps 752 mmHg 66%
    08:00 +34°C° 0 mm 4 mps 752 mmHg 59%
    09:00 +35°C° 0 mm 4 mps 752 mmHg 52%
    10:00 +36°C° 0 mm 4 mps 753 mmHg 45%
    11:00 +37°C° 0 mm 4 mps 752 mmHg 44%
    12:00 +37°C° 0 mm 5 mps 752 mmHg 44%
    13:00 +37°C° 0 mm 5 mps 751 mmHg 43%
    14:00 +37°C° 0.1 mm 5 mps 751 mmHg 44%
    15:00 +36°C° 0.1 mm 5 mps 751 mmHg 46%
    16:00 +36°C° 0.1 mm 5 mps 751 mmHg 47%
    17:00 +35°C° 0 mm 5 mps 751 mmHg 52%
    18:00 +34°C° 0 mm 4 mps 752 mmHg 57%
    19:00 +34°C° 0 mm 4 mps 752 mmHg 62%
    20:00 +33°C° 0 mm 4 mps 752 mmHg 63%
    21:00 +33°C° 0 mm 3 mps 753 mmHg 64%
    22:00 +33°C° 0 mm 3 mps 753 mmHg 65%
    23:00 +33°C° 0 mm 3 mps 753 mmHg 65%
    Show more